User: anonymous   Login
Location: Fishcreek Rd Observing Site
(41.1865°N, 81.4271°W)
Time: 09:05:15
(UTC-05:00)
Language:

Iridium 45 - Orbit

View from above orbital plane
View from above orbital plane
View from above satellite
View from above satellite

Ground track
Ground track

The orbit data is extracted from the following two-line orbital elements,

1 25104U 97082A   18054.43798316  .00000145  00000-0  44676-4 0  9998
2 25104  86.4008 182.2052 0002035 120.9990 239.1406 14.34215280 56387
Epoch (UTC): 23 February 2018 10:30:41
Eccentricity: 0.0002035
inclination: 86.4008°
perigee height: 776 km
apogee height: 779 km
right ascension of ascending node: 182.2052°
argument of perigee: 120.9990°
revolutions per day: 14.34215280
mean anomaly at epoch: 239.1406°
orbit number at epoch: 5638

The dashed part of the orbit path shows where the satellite is in the earth's shadow,  

DLR